Weather History for Parsons, KS

Change the Weather History Date:

Saturday, March 9, 2013

  Actual Average Record
Temperature  
Mean Temperature 60 °F -  
Max Temperature 64 °F 58 °F 76 °F (1992)
Min Temperature 53 °F 34 °F 11 °F (1969)
Degree Days  
Heating Degree Days 6    
Growing Degree Days 10 (Base 50)    
Moisture  
Dew Point 49 °F    
Average Humidity 71    
Maximum Humidity 94    
Minimum Humidity 45    
Precipitation  
Precipitation 0.03 in - - ()
Sea Level Pressure  
Sea Level Pressure 29.75 in    
Wind  
Wind Speed 11 mph (South)    
Max Wind Speed 20 mph    
Max Gust Speed 36 mph    
Visibility 8 miles    
Events Rain , Thunderstorm    
Averages and records for this station are not official NWS values.
T = Trace of Precipitation, MM = Missing Value Source: NWS Daily Summary

Daily Weather History Graph

Daily Weather History Graph

Search for Another Location

Airport:

Trip Planner

Search our weather history database for the weather conditions in past years. The results will help you decide how hot, cold, wet, or windy it might be!

Date:

Astronomy

Mar. 09, 2013 Rise Set
Actual Time 6:41 AM CST 6:23 PM CST
Civil Twilight 6:15 AM CST 6:50 PM CST
Nautical Twilight 5:45 AM CST 7:20 PM CST
Astronomical Twilight 5:14 AM CST 7:50 PM CST
Moon 5:03 AM CST (3/9) 4:28 PM CST (3/9)
Length of Visible Light 12h 34m
Length of Day
11h 42m
Waning Crescent, 5% of the Moon is Illuminated
Mar 9
Waning Crescent
Mar 11
New
Mar 19
First Quarter
Mar 27
Full
Apr 2
Last Quarter

Hourly Weather History & Observations

Time (CST) Temp. Dew Point Humidity Pressure Visibility Wind Dir Wind Speed Gust Speed Precip Events Conditions
12:52 AM 57.0 °F 37.9 °F 49% 29.97 in 7.0 mi SSE 6.9 mph - N/A   Overcast
1:52 AM 57.0 °F 37.9 °F 49% 29.96 in 10.0 mi SSE 8.1 mph - N/A   Overcast
2:52 AM 57.0 °F 36.0 °F 45% 29.94 in 10.0 mi South 9.2 mph - N/A   Overcast
3:52 AM 57.0 °F 37.0 °F 47% 29.91 in 10.0 mi South 6.9 mph - 0.00 in   Overcast
4:52 AM 55.9 °F 37.0 °F 49% 29.90 in 10.0 mi South 8.1 mph - N/A   Overcast
5:52 AM 57.0 °F 36.0 °F 45% 29.89 in 10.0 mi South 11.5 mph 16.1 mph N/A   Overcast
6:52 AM 55.9 °F 36.0 °F 47% 29.88 in 10.0 mi SSE 12.7 mph 18.4 mph N/A   Overcast
7:52 AM 57.0 °F 37.9 °F 49% 29.86 in 10.0 mi SSE 11.5 mph 20.7 mph N/A   Overcast
9:52 AM 57.9 °F 43.0 °F 58% 29.81 in 10.0 mi South 15.0 mph 24.2 mph N/A   Partly Cloudy
10:52 AM 61.0 °F 46.0 °F 58% 29.78 in 10.0 mi South 13.8 mph 26.5 mph N/A   Mostly Cloudy
11:12 AM 62.6 °F 48.2 °F 59% 29.78 in 10.0 mi South 17.3 mph 28.8 mph N/A   Overcast
11:52 AM 64.0 °F 50.0 °F 60% 29.75 in 10.0 mi South 19.6 mph 31.1 mph N/A   Overcast
12:52 PM 64.0 °F 51.1 °F 63% 29.73 in 10.0 mi South 17.3 mph 27.6 mph N/A   Overcast
1:52 PM 64.0 °F 52.0 °F 65% 29.70 in 10.0 mi South 19.6 mph 35.7 mph N/A   Overcast
2:52 PM 63.0 °F 53.1 °F 70% 29.68 in 10.0 mi South 17.3 mph 29.9 mph 0.00 in   Overcast
3:52 PM 62.1 °F 54.0 °F 75% 29.68 in 10.0 mi South 18.4 mph 26.5 mph N/A   Overcast
4:52 PM 62.1 °F 54.0 °F 75% 29.66 in 10.0 mi South 16.1 mph 25.3 mph N/A   Overcast
5:52 PM 60.1 °F 55.0 °F 83% 29.66 in 7.0 mi South 10.4 mph 23.0 mph 0.00 in Rain Light Rain
6:04 PM 60.8 °F 55.4 °F 82% 29.67 in 10.0 mi South 13.8 mph 19.6 mph 0.00 in Rain , Thunderstorm Light Thunderstorms and Rain
6:28 PM 60.8 °F 55.4 °F 82% 29.67 in 6.0 mi North - - 0.00 in Rain Light Rain
6:52 PM 59.0 °F 55.9 °F 90% 29.68 in 5.0 mi South 9.2 mph - 0.00 in Rain Light Rain
7:17 PM 59.0 °F 55.4 °F 88% 29.67 in 4.0 mi South 8.1 mph - N/A Rain Light Rain
7:39 PM 59.0 °F 55.4 °F 88% 29.67 in 3.0 mi SSE 8.1 mph - N/A Rain Rain
7:50 PM 59.0 °F 55.4 °F 88% 29.69 in 3.0 mi West 12.7 mph - N/A Rain Light Rain
7:52 PM 57.9 °F 55.9 °F 93% 29.68 in 3.0 mi WSW 12.7 mph - N/A Rain Rain
7:58 PM 57.2 °F 53.6 °F 88% 29.69 in 2.5 mi WSW 9.2 mph - 0.03 in Rain Heavy Rain
8:44 PM 55.4 °F 53.6 °F 94% 29.68 in 3.0 mi West 10.4 mph - 0.03 in Rain Rain
8:52 PM 55.9 °F 53.1 °F 90% 29.67 in 6.0 mi Calm Calm - 0.03 in Rain Light Rain
9:52 PM 57.0 °F 55.0 °F 93% 29.65 in 8.0 mi SSE 5.8 mph - 0.00 in   Scattered Clouds
10:52 PM 55.9 °F 53.1 °F 90% 29.63 in 10.0 mi SSE 3.5 mph - N/A   Clear
11:52 PM 53.1 °F 51.1 °F 93% 29.63 in 10.0 mi South 4.6 mph - N/A   Clear